Change the Weather History Date:

Tuesday, November 5, 2013

  Actual Average Record
Temperature  
Mean Temperature 44 °F -  
Max Temperature 48 °F 44 °F 55 °F (1982)
Min Temperature 41 °F 35 °F 26 °F (1973)
Degree Days  
Heating Degree Days 20    
Moisture  
Dew Point 37 °F    
Average Humidity 75    
Maximum Humidity 87    
Minimum Humidity 63    
Precipitation  
Precipitation 0.42 in - - ()
Sea Level Pressure  
Sea Level Pressure 29.49 in    
Wind  
Wind Speed 29 mph (South)    
Max Wind Speed 61 mph    
Max Gust Speed 86 mph    
Visibility 7 miles    
Events      
Averages and records for this station are not official NWS values.
T = Trace of Precipitation, MM = Missing Value Source: NWS Daily Summary

Daily Weather History Graph

Daily Weather History Graph

Search for Another Location

Airport or City:

Trip Planner

Search our weather history database for the weather conditions in past years. The results will help you decide how hot, cold, wet, or windy it might be!

Date:

Astronomy

Nov. 05, 2013 Rise Set
Actual Time 8:49 AM HAST 6:10 PM HAST
Civil Twilight 8:13 AM HAST 6:46 PM HAST
Nautical Twilight 7:32 AM HAST 7:26 PM HAST
Astronomical Twilight 6:53 AM HAST 8:05 PM HAST
Moon 11:30 AM HAST (11/5) 8:15 PM HAST (11/5)
Length of Visible Light 10h 33m
Length of Day
9h 21m
Waxing Crescent, 8% of the Moon is Illuminated
Nov 5
Waxing Crescent
Nov 9
First Quarter
Nov 17
Full
Nov 25
Last Quarter
Dec 2
New

Hourly Weather History & Observations

Time (HAST) Temp. Windchill Dew Point Humidity Pressure Visibility Wind Dir Wind Speed Gust Speed Precip Events Conditions
12:16 AM 41.0 °F 33.9 °F 32.0 °F 70% 30.13 in 10.0 mi SSE 12.7 mph - N/A   Partly Cloudy
12:36 AM 41.0 °F 33.1 °F 33.8 °F 76% 30.13 in 10.0 mi South 15.0 mph - N/A   Mostly Cloudy
12:56 AM 41.0 °F 32.5 °F 33.8 °F 76% 30.12 in 10.0 mi SSE 17.3 mph 21.9 mph N/A   Scattered Clouds
1:16 AM 41.0 °F 32.2 °F 33.8 °F 76% 30.11 in 10.0 mi South 18.4 mph 26.5 mph N/A   Partly Cloudy
1:36 AM 41.0 °F 32.8 °F 33.8 °F 76% 30.10 in 10.0 mi South 16.1 mph 20.7 mph N/A   Mostly Cloudy
1:56 AM 41.0 °F 34.3 °F 30.2 °F 65% 30.08 in 10.0 mi South 11.5 mph 23.0 mph N/A   Mostly Cloudy
2:16 AM 41.0 °F 31.1 °F 32.0 °F 70% 30.04 in 10.0 mi SSE 23.0 mph 29.9 mph N/A   Partly Cloudy
2:36 AM 41.0 °F 30.0 °F 32.0 °F 70% 30.02 in 10.0 mi SSE 28.8 mph 38.0 mph N/A   Clear
2:56 AM 41.0 °F 31.4 °F 32.0 °F 70% 30.03 in 10.0 mi SSE 21.9 mph 34.5 mph N/A   Mostly Cloudy
3:16 AM 41.0 °F 31.4 °F 32.0 °F 70% 30.02 in 10.0 mi SSE 21.9 mph 29.9 mph N/A   Mostly Cloudy
3:36 AM 41.0 °F 30.9 °F 32.0 °F 70% 30.02 in 10.0 mi SSE 24.2 mph 29.9 mph N/A   Overcast
3:56 AM 41.0 °F 30.9 °F 32.0 °F 70% 30.02 in 10.0 mi SSE 24.2 mph 32.2 mph N/A   Overcast
4:16 AM 41.0 °F 31.4 °F 32.0 °F 70% 30.00 in 10.0 mi SSE 21.9 mph 28.8 mph N/A   Overcast
4:36 AM 41.0 °F 30.9 °F 33.8 °F 76% 29.97 in 10.0 mi SSE 24.2 mph 33.4 mph N/A   Overcast
4:56 AM 41.0 °F 30.9 °F 33.8 °F 76% 29.95 in 10.0 mi SSE 24.2 mph 35.7 mph N/A   Overcast
5:16 AM 41.0 °F 30.5 °F 33.8 °F 76% 29.93 in 10.0 mi SSE 26.5 mph 35.7 mph N/A   Overcast
5:36 AM 42.8 °F 32.7 °F 33.8 °F 70% 29.91 in 10.0 mi SSE 27.6 mph 39.1 mph N/A   Overcast
5:56 AM 42.8 °F 32.5 °F 33.8 °F 70% 29.90 in 10.0 mi SSE 28.8 mph 36.8 mph N/A   Overcast
6:16 AM 42.8 °F 33.5 °F 33.8 °F 70% 29.89 in 10.0 mi SSE 23.0 mph 36.8 mph N/A   Overcast
6:56 AM 42.8 °F 32.3 °F 33.8 °F 70% 29.84 in 10.0 mi SSE 29.9 mph 41.4 mph N/A   Overcast
7:36 AM 42.8 °F 32.1 °F 35.6 °F 76% 29.79 in 7.0 mi SSE 31.1 mph 43.7 mph N/A   Overcast
7:56 AM 42.8 °F 31.6 °F 35.6 °F 76% 29.77 in 3.0 mi SSE 34.5 mph 47.2 mph 0.02 in   Overcast
8:36 AM 42.8 °F 30.7 °F 35.6 °F 76% 29.70 in 4.0 mi SSE 41.4 mph 54.1 mph 0.05 in   Overcast
8:56 AM 44.6 °F 35.1 °F 35.6 °F 71% 29.66 in 10.0 mi SE 27.6 mph 48.3 mph 0.05 in   Mostly Cloudy
9:16 AM 44.6 °F 34.1 °F 35.6 °F 71% 29.67 in 4.0 mi SSE 34.5 mph 51.8 mph 0.01 in   Overcast
9:36 AM 44.6 °F 32.8 °F 37.4 °F 76% 29.63 in 1.2 mi SE 44.9 mph 57.5 mph 0.05 in   Overcast
9:56 AM 44.6 °F 33.1 °F 37.4 °F 76% 29.59 in 1.0 mi SSE 42.6 mph 56.4 mph 0.11 in   Overcast
11:36 AM 46.4 °F 35.3 °F 41.0 °F 81% 29.42 in 0.8 mi SSE 44.9 mph 70.2 mph N/A   Overcast
12:36 PM 46.4 °F 34.4 °F 41.0 °F 81% 29.31 in 1.0 mi SSE 55.2 mph 71.3 mph N/A   Overcast
12:56 PM 48.2 °F - 42.8 °F 82% 29.27 in 1.0 mi SSE 61.0 mph 80.6 mph N/A   Overcast
1:16 PM 48.2 °F - 41.0 °F 76% 29.23 in 1.0 mi SSE 59.8 mph 81.7 mph N/A   Overcast
1:36 PM 48.2 °F - 42.8 °F 82% 29.21 in 1.0 mi SSE 51.8 mph 86.3 mph N/A   Overcast
1:56 PM 46.4 °F 34.8 °F 42.8 °F 87% 29.16 in 1.2 mi SSE 50.6 mph 63.3 mph 0.09 in   Overcast
2:16 PM 46.4 °F 34.9 °F 42.8 °F 87% 29.13 in 1.0 mi SSE 49.5 mph 67.9 mph 0.03 in   Overcast
2:36 PM 46.4 °F 35.5 °F 42.8 °F 87% 29.11 in 1.0 mi South 43.7 mph 66.7 mph 0.06 in   Overcast
3:56 PM 48.2 °F - 42.8 °F 82% 29.01 in 3.0 mi South 47.2 mph 62.1 mph N/A   Overcast
4:56 PM 48.2 °F - 44.6 °F 87% 28.98 in 1.8 mi SSW 33.4 mph 46.0 mph 0.07 in   Overcast
5:56 PM 46.4 °F 35.5 °F 42.8 °F 87% 28.96 in 2.5 mi SSW 43.7 mph 54.1 mph 0.02 in   Overcast
6:16 PM 46.4 °F 35.3 °F 39.2 °F 76% 28.95 in 7.0 mi SSW 44.9 mph 55.2 mph N/A   Mostly Cloudy
6:36 PM 46.4 °F 36.1 °F 39.2 °F 76% 28.96 in 7.0 mi SSW 38.0 mph 51.8 mph N/A   Overcast
6:56 PM 46.4 °F 36.1 °F 39.2 °F 76% 28.95 in 9.0 mi SSW 38.0 mph 51.8 mph N/A   Overcast
7:16 PM 46.4 °F 36.0 °F 37.4 °F 71% 28.94 in 10.0 mi SSW 39.1 mph 57.5 mph N/A   Overcast
7:36 PM 46.4 °F 36.1 °F 37.4 °F 71% 28.94 in 9.0 mi SSW 38.0 mph 54.1 mph N/A   Overcast
7:56 PM 46.4 °F 36.7 °F 37.4 °F 71% 28.94 in 7.0 mi South 33.4 mph 49.5 mph N/A   Overcast
8:16 PM 44.6 °F 33.3 °F 39.2 °F 81% 28.93 in 3.0 mi SSW 40.3 mph 46.0 mph N/A   Overcast
8:36 PM 46.4 °F 36.9 °F 37.4 °F 71% 28.93 in 7.0 mi SSW 32.2 mph 49.5 mph N/A   Overcast
9:16 PM 44.6 °F 32.2 °F 37.4 °F 76% 28.90 in 8.0 mi SSW 50.6 mph 57.5 mph N/A   Overcast
9:56 PM 46.4 °F 34.9 °F 35.6 °F 66% 28.88 in 10.0 mi SSW 49.5 mph 62.1 mph N/A   Overcast
10:16 PM 46.4 °F 35.7 °F 35.6 °F 66% 28.88 in 8.0 mi SSW 41.4 mph 58.7 mph N/A   Overcast
10:36 PM 44.6 °F 33.3 °F 35.6 °F 71% 28.88 in 9.0 mi SSW 40.3 mph 57.5 mph N/A   Overcast
11:16 PM 44.6 °F 32.7 °F 35.6 °F 71% 28.85 in 8.0 mi SSW 46.0 mph 69.0 mph N/A   Overcast
11:36 PM 44.6 °F 32.9 °F 35.6 °F 71% 28.85 in 7.0 mi SSW 43.7 mph 61.0 mph N/A   Overcast